TimeCST,TemperatureF,Dew PointF,Humidity,Sea Level PressureIn,VisibilityMPH,Wind Direction,Wind SpeedMPH,Gust SpeedMPH,PrecipitationIn,Events,Conditions,WindDirDegrees,DateUTC
12:37 AM,24.8,21.2,86,29.55,8.0,SE,3.5,-,N/A,,Overcast,130,2012-12-18 06:37:00
12:53 AM,25.0,21.9,88,29.60,8.0,ESE,4.6,-,N/A,,Overcast,120,2012-12-18 06:53:00
1:53 AM,25.0,21.9,88,29.59,6.0,ESE,6.9,-,N/A,,Overcast,110,2012-12-18 07:53:00
2:53 AM,25.0,21.9,88,29.59,4.0,East,4.6,-,N/A,,Overcast,80,2012-12-18 08:53:00
3:53 AM,25.0,21.9,88,29.59,4.0,East,4.6,-,N/A,,Overcast,100,2012-12-18 09:53:00
4:53 AM,25.0,21.9,88,29.61,4.0,Calm,Calm,-,N/A,,Overcast,0,2012-12-18 10:53:00
5:53 AM,26.1,21.9,84,29.62,5.0,Calm,Calm,-,N/A,,Overcast,0,2012-12-18 11:53:00
6:53 AM,26.1,21.9,84,29.62,5.0,Calm,Calm,-,N/A,,Overcast,0,2012-12-18 12:53:00
7:53 AM,26.1,21.9,84,29.63,5.0,Calm,Calm,-,N/A,,Overcast,0,2012-12-18 13:53:00
8:53 AM,26.1,23.0,88,29.64,3.0,Calm,Calm,-,N/A,,Overcast,0,2012-12-18 14:53:00
9:44 AM,26.6,23.0,86,29.61,2.0,Calm,Calm,-,0.00,Snow,Light Snow,0,2012-12-18 15:44:00
9:53 AM,27.0,23.0,85,29.66,1.2,Calm,Calm,-,0.00,Snow,Light Snow,0,2012-12-18 15:53:00
10:15 AM,26.6,24.8,93,29.61,1.5,Calm,Calm,-,0.01,Snow,Light Snow,0,2012-12-18 16:15:00
10:31 AM,26.6,24.8,93,29.61,1.2,South,3.5,-,0.01,Snow,Light Snow,190,2012-12-18 16:31:00
10:39 AM,26.6,24.8,93,29.61,1.8,South,3.5,-,0.01,Snow,Light Snow,180,2012-12-18 16:39:00
10:51 AM,26.6,24.8,93,29.62,1.2,South,5.8,-,0.01,Snow,Light Snow,190,2012-12-18 16:51:00
10:52 AM,27.0,24.1,89,29.67,1.2,South,5.8,-,0.01,Snow,Light Snow,190,2012-12-18 16:52:00
11:26 AM,28.4,24.8,86,29.61,1.0,South,4.6,-,0.01,Snow,Light Snow,190,2012-12-18 17:26:00
11:38 AM,28.4,24.8,86,29.61,1.5,SSW,5.8,-,0.01,Snow,Light Snow,200,2012-12-18 17:38:00
11:49 AM,28.4,24.8,86,29.61,2.5,SSW,6.9,-,0.01,Snow,Light Snow,210,2012-12-18 17:49:00
11:53 AM,28.0,24.1,85,29.66,3.0,SSW,8.1,-,0.01,Snow,Light Snow,210,2012-12-18 17:53:00
12:22 PM,28.4,24.8,86,29.61,5.0,SSW,8.1,-,0.00,,Overcast,200,2012-12-18 18:22:00
12:53 PM,28.9,24.1,82,29.67,7.0,SSW,10.4,-,0.00,,Overcast,200,2012-12-18 18:53:00
1:53 PM,28.9,24.1,82,29.66,10.0,SW,8.1,-,N/A,,Overcast,230,2012-12-18 19:53:00
2:53 PM,28.9,24.1,82,29.67,10.0,SW,9.2,-,N/A,,Overcast,230,2012-12-18 20:53:00
3:20 PM,30.2,24.8,80,29.63,10.0,SW,8.1,-,N/A,,Overcast,230,2012-12-18 21:20:00
3:53 PM,28.9,24.1,82,29.69,10.0,SSW,6.9,-,N/A,,Mostly Cloudy,210,2012-12-18 21:53:00
4:21 PM,26.6,23.0,86,29.64,10.0,SSW,6.9,-,N/A,,Scattered Clouds,210,2012-12-18 22:21:00
4:53 PM,21.9,19.0,89,29.70,9.0,SSW,5.8,-,N/A,,Clear,210,2012-12-18 22:53:00
5:35 PM,15.8,12.2,86,29.66,1.8,SSW,5.8,-,N/A,,Clear,210,2012-12-18 23:35:00
5:53 PM,17.1,14.0,88,29.73,1.2,SW,4.6,-,N/A,,Clear,220,2012-12-18 23:53:00
6:02 PM,17.6,15.8,93,29.66,0.5,Calm,Calm,-,N/A,Fog,Light Freezing Fog,0,2012-12-19 00:02:00
6:10 PM,15.8,14.0,93,29.67,0.2,Calm,Calm,-,N/A,Fog,Light Freezing Fog,0,2012-12-19 00:10:00
6:53 PM,12.9,10.9,92,29.75,0.2,SSW,4.6,-,N/A,Fog,Light Freezing Fog,200,2012-12-19 00:53:00
7:53 PM,10.9,8.1,88,29.75,0.2,WSW,6.9,-,N/A,Fog,Light Freezing Fog,240,2012-12-19 01:53:00
8:02 PM,10.4,6.8,85,29.69,1.2,WSW,5.8,-,N/A,,Clear,250,2012-12-19 02:02:00
8:05 PM,10.4,6.8,85,29.69,2.0,WSW,6.9,-,N/A,,Clear,250,2012-12-19 02:05:00
8:12 PM,10.4,6.8,85,29.70,5.0,WSW,8.1,-,N/A,,Clear,250,2012-12-19 02:12:00
8:53 PM,12.0,8.1,84,29.77,10.0,SSW,9.2,-,N/A,,Clear,210,2012-12-19 02:53:00
9:53 PM,12.0,7.0,80,29.78,10.0,SSW,6.9,-,N/A,,Clear,210,2012-12-19 03:53:00
10:53 PM,15.1,10.9,84,29.81,10.0,South,9.2,-,N/A,,Clear,180,2012-12-19 04:53:00
11:53 PM,15.1,10.9,84,29.84,10.0,South,9.2,-,N/A,,Clear,180,2012-12-19 05:53:00